Location: Tierra del Sol
(32.6128°N, 116.3319°W)
Time: 23:37:10
(UTC-07:00)

ISS - Pass Details

Date: 13 October 2017
Orbit: 401 x 408 km, 51.6° (Epoch: 22 October)

Event Time Altitude Azimuth Distance (km) Brightness Sun altitude
Rises 18:50:03 0° 331° (NNW) 2,322 0.4 -8.3°
Reaches altitude 10° 18:52:54 10° 358° (N) 1,462 -1.0 -8.9°
Maximum altitude 18:54:44 14° 32° (NNE) 1,240 -1.7 -9.3°
Enters shadow 18:56:10 11° 60° (ENE) 1,378 -1.7 -9.6°
